GW3984 Weather Reports


Display with metric or nautical units.
time (UTC)temp
F
wind
direction
speed
MPH
gust
MPH
rain 1hr
in
rain 24hr
in
rain mn
in
humidity
%
barometer
mb
20260906211525 92 149 0.0 3.0 0.00 0.00 0.00 46 1012.9
20260906210025 92 116 1.0 3.0 0.00 0.00 0.00 46 1012.9
20260906205731 93 157 0.0 4.0 0.00 0.00 0.00 46 1012.0
20260906204725 94 273 0.0 4.0 0.00 0.00 0.00 45 1012.3
20260906204521 94 307 1.0 5.0 0.00 0.00 0.00 45 1013.2
20260906203738 96 84 0.0 4.0 0.00 0.00 0.00 44 1012.3
20260906203018 94 161 1.0 6.0 0.00 0.00 0.00 45 1013.1
20260906202726 95 124 0.0 5.0 0.00 0.00 0.00 44 1012.4
20260906201731 94 172 1.0 6.0 0.00 0.00 0.00 47 1012.4
20260906201513 93 165 2.0 7.0 0.00 0.00 0.00 43 1013.2
20260906200724 95 204 2.0 6.0 0.00 0.00 0.00 45 1012.5
20260906200032 94 121 4.0 8.0 0.00 0.00 0.00 45 1013.6
20260906195714 93 27 0.0 6.0 0.00 0.00 0.00 46 1012.7
20260906194724 94 15 2.0 6.0 0.00 0.00 0.00 46 1013.0
20260906194531 94 118 3.0 8.0 0.00 0.00 0.00 45 1013.8
20260906193708 95 319 1.0 7.0 0.00 0.00 0.00 47 1013.1
20260906193038 93 115 3.0 9.0 0.00 0.00 0.00 44 1014.0
20260906192640 94 45 1.0 7.0 0.00 0.00 0.00 45 1013.2
20260906191657 95 94 0.0 3.0 0.00 0.00 0.00 45 1013.3
20260906191527 94 163 1.0 4.0 0.00 0.00 0.00 45 1014.0
20260906190635 95 58 1.0 6.0 0.00 0.00 0.00 46 1013.5
20260906190027 93 256 3.0 8.0 0.00 0.00 0.00 46 1014.3
20260906185628 94 123 1.0 6.0 0.00 0.00 0.00 45 1013.6
20260906184646 95 270 0.0 3.0 0.00 0.00 0.00 48 1013.7
20260906184532 94 252 0.0 4.0 0.00 0.00 0.00 48 1014.3
20260906183702 94 151 0.0 2.0 0.00 0.00 0.00 47 1013.7
20260906183032 96 338 0.0 3.0 0.00 0.00 0.00 43 1014.4
20260906182643 97 5 0.0 3.0 0.00 0.00 0.00 46 1013.8
20260906181647 95 179 0.0 3.0 0.00 0.00 0.00 50 1013.9
20260906181521 94 302 1.0 4.0 0.00 0.00 0.00 49 1014.6
20260906180039 93 202 1.0 3.0 0.00 0.00 0.00 46 1014.9
20260906175536 94 94 0.0 4.0 0.00 0.00 0.00 51 1014.3
20260906174541 93 92 0.0 2.0 0.00 0.00 0.00 50 1014.5
20260906174535 93 157 1.0 3.0 0.00 0.00 0.00 50 1015.2
20260906173540 97 47 0.0 3.0 0.00 0.00 0.00 47 1014.6
20260906173033 96 294 1.0 4.0 0.00 0.00 0.00 52 1015.5
20260906172519 94 193 0.0 3.0 0.00 0.00 0.00 54 1014.7
20260906171539 93 141 0.0 3.0 0.00 0.00 0.00 55 1014.9
20260906171528 93 111 0.0 4.0 0.00 0.00 0.00 53 1015.8
20260906170559 91 168 1.0 3.0 0.00 0.00 0.00 56 1015.0
20260906170028 91 198 1.0 4.0 0.00 0.00 0.00 56 1015.9
20260906164534 92 22 0.0 2.0 0.00 0.00 0.00 56 1015.9
20260906164426 92 296 0.0 1.0 0.00 0.00 0.00 56 1015.1
20260906163451 91 184 0.0 2.0 0.00 0.00 0.00 57 1015.2
20260906163026 91 207 0.0 6.0 0.00 0.00 0.00 59 1016.0
20260906161532 89 116 2.0 7.0 0.00 0.00 0.00 57 1016.0
20260906161405 90 69 0.0 5.0 0.00 0.00 0.00 57 1015.1
20260906160405 90 328 0.0 2.0 0.00 0.00 0.00 61 1015.1
20260906160019 89 194 0.0 3.0 0.00 0.00 0.00 60 1016.0
20260906155348 89 331 0.0 4.0 0.00 0.00 0.00 60 1015.1
20260906154515 89 312 0.0 6.0 0.00 0.00 0.00 64 1015.9
20260906154339 89 213 1.0 5.0 0.00 0.00 0.00 68 1015.0
20260906153346 87 155 0.0 5.0 0.00 0.00 0.00 67 1014.9
20260906153022 86 128 0.0 7.0 0.00 0.00 0.00 68 1015.9
20260906152343 88 124 0.0 3.0 0.00 0.00 0.00 65 1015.0
20260906151508 87 190 0.0 4.0 0.00 0.00 0.00 69 1015.7
20260906151355 87 190 0.0 4.0 0.00 0.00 0.00 70 1014.8
20260906150417 85 182 0.0 6.0 0.00 0.00 0.00 70 1014.8
20260906150007 85 179 1.0 4.0 0.00 0.00 0.00 70 1015.6
20260906145421 86 173 0.0 6.0 0.00 0.00 0.00 72 1014.8
20260906144504 85 155 3.0 6.0 0.00 0.00 0.00 69 1015.5
20260906144441 86 174 0.0 4.0 0.00 0.00 0.00 69 1014.7
20260906143432 86 172 0.0 1.0 0.00 0.00 0.00 70 1014.7
20260906143029 85 165 0.0 6.0 0.00 0.00 0.00 71 1015.5
20260906141529 82 134 0.0 3.0 0.00 0.00 0.00 76 1015.5
20260906140145 81 175 0.0 1.0 0.00 0.00 0.00 82 1014.7
20260906140027 81 149 1.0 2.0 0.00 0.00 0.00 82 1015.4
20260906134517 80 165 0.0 2.0 0.00 0.00 0.00 83 1015.1
20260906134028 80 165 0.0 1.0 0.00 0.00 0.00 85 1014.4
20260906133014 79 100 0.0 0.0 0.00 0.00 0.00 86 1015.0
20260906131914 78 105 0.0 0.0 0.00 0.00 0.00 87 1014.2
20260906131514 78 109 0.0 0.0 0.00 0.00 0.00 87 1014.9
20260906130008 76 65 0.0 0.0 0.00 0.00 0.00 88 1014.7
20260906125740 77 60 0.0 0.0 0.00 0.00 0.00 89 1013.9
20260906124707 76 60 0.0 0.0 0.00 0.00 0.00 89 1013.8
20260906124508 75 65 0.0 0.0 0.00 0.00 0.00 88 1014.4
20260906123633 76 60 0.0 0.0 0.00 0.00 0.00 89 1013.6
20260906123035 75 65 0.0 0.0 0.00 0.00 0.00 87 1014.2
20260906122614 76 60 0.0 0.0 0.00 0.00 0.00 88 1013.6
20260906121532 75 65 0.0 0.0 0.00 0.00 0.00 87 1014.1
20260906120507 76 60 0.0 0.0 0.00 0.00 0.00 88 1013.3
20260906120027 75 114 0.0 0.0 0.00 0.00 0.00 86 1014.1
20260906115456 76 111 0.0 0.0 0.00 0.00 0.00 86 1013.4
20260906114527 76 114 0.0 0.0 0.00 0.00 0.00 86 1014.0
20260906113318 76 111 0.0 0.0 0.00 0.00 0.00 86 1013.1
20260906113042 76 114 0.0 0.0 0.00 0.00 0.00 85 1013.7
20260906112251 76 111 0.0 0.0 0.00 0.00 0.00 86 1013.0
20260906111518 75 190 0.0 0.0 0.00 0.00 0.00 85 1013.6
20260906111243 76 35 0.0 0.0 0.00 0.00 0.00 86 1012.6
20260906110218 76 35 0.0 0.0 0.00 0.00 0.00 86 1012.3
20260906110014 75 41 0.0 0.0 0.00 0.00 0.00 86 1013.1
20260906105146 76 35 0.0 0.0 0.00 0.00 0.00 86 1012.4
20260906104514 75 41 0.0 0.0 0.00 0.00 0.00 85 1013.1
20260906103042 75 41 0.0 0.0 0.00 0.00 0.00 85 1013.1
20260906103013 76 35 0.0 0.0 0.00 0.00 0.00 85 1012.3
20260906101951 76 35 0.0 0.0 0.00 0.00 0.00 85 1012.3
20260906101534 75 41 0.0 0.0 0.00 0.00 0.00 84 1013.0
20260906100942 76 35 0.0 0.0 0.00 0.00 0.00 85 1012.3
20260906100031 75 41 0.0 0.0 0.00 0.00 0.00 85 1012.8
20260906100003 76 35 0.0 0.0 0.00 0.00 0.00 85 1012.0
20260906094934 76 35 0.0 0.0 0.00 0.00 0.00 85 1012.2
20260906094527 75 42 0.0 0.0 0.00 0.00 0.00 84 1012.8
20260906093953 76 36 0.0 0.0 0.00 0.00 0.00 85 1012.2
20260906093026 75 42 0.0 0.0 0.00 0.00 0.00 84 1013.0
20260906092937 76 36 0.0 0.0 0.00 0.00 0.00 85 1012.2
20260906091942 76 36 0.0 0.0 0.00 0.00 0.00 85 1012.2
20260906091526 75 42 0.0 0.0 0.00 0.00 0.00 84 1013.0
20260906090954 76 36 0.0 0.0 0.00 0.00 0.00 84 1012.3
20260906090019 76 41 0.0 0.0 0.00 0.00 0.00 83 1013.1
20260906090011 77 36 0.0 0.0 0.00 0.00 0.00 84 1012.3
20260906084959 77 36 0.0 0.0 0.00 0.00 0.00 83 1012.4
20260906084533 77 42 0.0 0.0 0.00 0.00 0.00 82 1013.1
20260906083031 77 42 0.0 0.0 0.00 0.00 0.00 81 1013.3
20260906082901 78 36 0.0 0.0 0.00 0.00 0.00 82 1012.6
20260906081848 78 35 0.0 0.0 0.00 0.00 0.00 81 1012.6
20260906081530 78 42 0.0 0.0 0.00 0.00 0.00 80 1013.5
20260906080910 79 36 0.0 0.0 0.00 0.00 0.00 80 1012.8
20260906080030 79 42 0.0 0.0 0.00 0.00 0.00 79 1013.4
20260906075901 79 36 0.0 0.0 0.00 0.00 0.00 79 1012.7
20260906074919 79 347 0.0 0.0 0.00 0.00 0.00 79 1012.8
20260906074536 79 180 0.0 2.0 0.00 0.00 0.00 78 1013.5
20260906073904 79 192 0.0 0.0 0.00 0.00 0.00 78 1012.8
20260906073030 79 123 0.0 3.0 0.00 0.00 0.00 76 1013.7
20260906071526 80 172 0.0 3.0 0.00 0.00 0.00 75 1014.1
20260906070726 80 168 0.0 1.0 0.00 0.00 0.00 75 1013.7
20260906070023 80 145 1.0 4.0 0.00 0.00 0.00 74 1014.2
20260906065658 80 145 0.0 6.0 0.00 0.00 0.00 74 1013.6
20260906064706 81 116 0.0 3.0 0.00 0.00 0.00 74 1013.5
20260906064532 80 125 0.0 2.0 0.00 0.00 0.00 73 1014.2
20260906063730 81 126 0.0 1.0 0.00 0.00 0.00 73 1013.6
20260906063018 81 135 2.0 8.0 0.00 0.00 0.00 72 1014.2
20260906061611 81 121 0.0 4.0 0.00 0.00 0.00 72 1013.8
20260906061521 81 141 0.0 6.0 0.00 0.00 0.00 72 1014.5
20260906060546 81 183 0.0 3.0 0.00 0.00 0.00 72 1013.7
20260906060010 81 105 0.0 4.0 0.00 0.00 0.00 71 1014.4
20260906055534 81 127 0.0 1.0 0.00 0.00 0.00 72 1013.8
20260906054556 81 170 0.0 1.0 0.00 0.00 0.00 71 1013.7
20260906054522 81 126 0.0 2.0 0.00 0.00 0.00 71 1014.4
20260906053621 82 98 0.0 0.0 0.00 0.00 0.00 70 1013.8
20260906053006 81 150 0.0 2.0 0.00 0.00 0.00 69 1014.5
20260906052554 82 139 0.0 0.0 0.00 0.00 0.00 69 1013.8
20260906051504 82 110 0.0 3.0 0.00 0.00 0.00 67 1014.6
20260906050459 83 149 0.0 0.0 0.00 0.00 0.00 67 1013.9
20260906050028 83 176 0.0 8.0 0.00 0.00 0.00 66 1014.7
20260906045439 83 122 0.0 4.0 0.00 0.00 0.00 66 1013.9
20260906044523 83 121 0.0 4.0 0.00 0.00 0.00 64 1014.6
20260906044500 83 119 0.0 0.0 0.00 0.00 0.00 65 1013.9
20260906043431 84 129 0.0 5.0 0.00 0.00 0.00 65 1013.8
20260906043023 83 185 1.0 7.0 0.00 0.00 0.00 64 1014.7
20260906042408 84 95 1.0 4.0 0.00 0.00 0.00 65 1013.8
20260906041516 84 159 1.0 7.0 0.00 0.00 0.00 65 1014.5
20260906041424 84 141 0.0 4.0 0.00 0.00 0.00 65 1013.8
20260906040421 85 138 1.0 5.0 0.00 0.00 0.00 65 1013.8
20260906040019 84 133 1.0 7.0 0.00 0.00 0.00 64 1014.5
20260906035428 85 183 1.0 5.0 0.00 0.00 0.00 64 1013.7
20260906034511 84 110 2.0 7.0 0.00 0.00 0.00 63 1014.4
20260906034442 85 109 1.0 5.0 0.00 0.00 0.00 64 1013.6
20260906033008 85 120 1.0 6.0 0.00 0.00 0.00 62 1014.0
20260906032343 86 125 1.0 10.0 0.00 0.00 0.00 62 1013.2
20260906031508 86 97 4.0 12.0 0.00 0.00 0.00 61 1013.9
20260906031401 86 113 3.0 10.0 0.00 0.00 0.00 61 1013.1
20260906030028 86 54 3.0 8.0 0.00 0.00 0.00 60 1013.6
20260906025325 87 142 1.0 8.0 0.00 0.00 0.00 60 1012.7
20260906024533 87 131 2.0 10.0 0.00 0.00 0.00 58 1013.2
20260906024311 88 99 2.0 8.0 0.00 0.00 0.00 58 1012.4
20260906023331 88 174 1.0 6.0 0.00 0.00 0.00 55 1012.0
20260906023025 87 148 3.0 8.0 0.00 0.00 0.00 54 1012.8
20260906022354 88 134 0.0 5.0 0.00 0.00 0.00 53 1011.7
20260906021535 87 145 1.0 5.0 0.00 0.00 0.00 52 1012.2
20260906021331 88 113 0.0 1.0 0.00 0.00 0.00 52 1011.5
20260906020315 87 123 0.0 3.0 0.00 0.00 0.00 53 1011.3
20260906020021 86 132 2.0 4.0 0.00 0.00 0.00 54 1012.0
20260906015317 84 172 0.0 0.0 0.00 0.00 0.00 61 1011.2
20260906014517 84 173 0.0 0.0 0.00 0.00 0.00 59 1011.9
20260906013211 85 172 0.0 0.0 0.00 0.00 0.00 59 1011.0
20260906013024 85 173 0.0 0.0 0.00 0.00 0.00 57 1011.7
20260906012205 86 172 0.0 0.0 0.00 0.00 0.00 56 1011.0
20260906011533 86 173 0.0 0.0 0.00 0.00 0.00 54 1011.8
20260906011201 87 172 0.0 0.0 0.00 0.00 0.00 53 1010.8
20260906010218 89 172 0.0 0.0 0.00 0.00 0.00 51 1010.7
20260906010032 89 173 0.0 2.0 0.00 0.00 0.00 49 1011.6
20260906005229 90 120 0.0 0.0 0.00 0.00 0.00 48 1010.7
20260906004529 90 134 0.0 4.0 0.00 0.00 0.00 47 1011.5
20260906004233 91 139 0.0 4.0 0.00 0.00 0.00 47 1010.5
20260906003221 91 161 0.0 4.0 0.00 0.00 0.00 47 1010.7
20260906003031 91 182 2.0 5.0 0.00 0.00 0.00 46 1011.5
20260906002238 92 127 0.0 4.0 0.00 0.00 0.00 47 1010.7
20260906001527 92 139 1.0 3.0 0.00 0.00 0.00 46 1011.6
20260906001243 92 142 0.0 6.0 0.00 0.00 0.00 46 1010.7
20260906000034 92 137 1.0 4.0 0.00 0.00 0.00 44 1011.5
20260905235138 93 131 0.0 1.0 0.00 0.00 0.00 45 1010.6
20260905234519 92 134 2.0 6.0 0.00 0.00 0.00 43 1011.6
20260905234124 93 146 1.0 4.0 0.00 0.00 0.00 44 1010.6
20260905233144 93 146 0.0 3.0 0.00 0.00 0.00 44 1010.7
20260905233019 93 65 1.0 5.0 0.00 0.00 0.00 44 1011.6
20260905232144 94 115 0.0 5.0 0.00 0.00 0.00 44 1010.5
20260905231510 93 87 1.0 8.0 0.00 0.00 0.00 43 1011.5
20260905230035 93 146 1.0 8.0 0.00 0.00 0.00 45 1011.5
20260905225952 93 145 1.0 6.0 0.00 0.00 0.00 45 1010.6
20260905224957 94 41 1.0 5.0 0.00 0.00 0.00 46 1010.7
20260905224532 94 149 2.0 7.0 0.00 0.00 0.00 44 1011.6
20260905223028 94 60 1.0 4.0 0.00 0.00 0.00 43 1011.7
20260905222855 95 153 0.0 4.0 0.00 0.00 0.00 44 1010.7
20260905221914 94 71 1.0 7.0 0.00 0.00 0.00 42 1010.8
20260905221528 94 156 1.0 9.0 0.00 0.00 0.00 41 1011.6
20260905220938 95 134 1.0 7.0 0.00 0.00 0.00 42 1010.8
20260905220027 95 123 2.0 9.0 0.00 0.00 0.00 43 1011.7
20260905215903 95 151 1.0 7.0 0.00 0.00 0.00 43 1010.8
20260905214919 95 122 1.0 5.0 0.00 0.00 0.00 44 1010.9
20260905214525 94 161 1.0 7.0 0.00 0.00 0.00 44 1011.7
20260905213938 94 133 0.0 4.0 0.00 0.00 0.00 45 1010.8
20260905213019 93 153 1.0 3.0 0.00 0.00 0.00 44 1011.9
20260905212929 93 125 0.0 3.0 0.00 0.00 0.00 45 1011.0